RH
81 83 86 84 82 81 81 82 85 85 79 75 73 74 79 82 84 86 88 86 86 87 87 86 85 85 86 86 88 88 86 85 85 86 88 88 85 84 87 86 85 84 87 83 81 79 78 78 76 75 75 73 72 72 73 72 71 70 68 67 66 66 65 64 62 60 57 61 67 73 80 83 85 84 81 81 81 82 83 82 83 82 80 79 78 77 75 73 71 71 74 76 79 81 82 82 83 83 82 80 78 77 77
83 84 84 83 82 82 82 83 85 84 80 79 81 83 85 87 88 88 88 86 85 86 86 89 89 89 88 87 87 86 83 83 83 85 87 87 85 83 82 85 87 87 88 89 86 81 77 76 74 72 72 71 70 70 70 70 69 69 69 70 70 70 70 70 69 69 70 72 75 79 82 84 85 85 85 84 83 82 83 84 87 90 91 90 87 85 81 76 73 71 71 74 76 77 78 77 78 78 80 83 84 83 81
84 84 84 83 82 82 83 83 83 83 85 85 87 88 86 87 87 87 87 85 83 83 87 88 89 89 89 85 84 84 84 83 85 87 88 86 85 84 84 87 88 88 89 89 87 83 79 76 74 72 71 70 70 70 70 70 71 71 72 72 73 73 73 74 73 75 81 83 83 83 85 83 82 83 84 84 83 83 84 84 85 88 92 94 93 90 87 83 78 74 72 74 76 76 76 74 74 74 75 79 83 85 85
85 85 85 82 81 80 81 82 82 83 82 84 84 83 86 84 84 85 85 84 83 83 84 85 86 86 86 84 84 85 86 85 84 86 89 89 88 87 87 88 88 87 87 85 83 81 80 78 75 73 72 71 71 71 72 72 73 73 73 73 73 74 74 74 75 78 88 93 93 91 88 84 82 82 83 83 83 83 83 84 85 86 88 90 91 89 88 86 84 81 79 81 80 78 76 74 74 75 76 77 80 82 82
85 86 86 82 79 77 77 83 85 84 83 81 81 83 84 85 84 83 83 82 83 85 84 85 85 85 84 85 85 86 87 86 86 87 88 90 90 90 89 88 86 85 83 81 81 82 84 80 77 75 74 74 73 73 74 73 73 73 73 73 73 74 74 74 76 81 93 96 94 91 90 87 85 83 80 82 80 77 74 73 76 80 84 87 87 86 86 85 84 84 83 84 82 79 74 75 78 82 82 80 78 77 77
86 85 84 80 78 78 79 85 87 85 82 82 83 85 88 86 84 83 83 84 85 86 85 86 86 85 85 89 89 88 89 92 91 90 91 90 90 90 89 88 85 83 82 82 82 83 83 81 79 77 76 75 75 75 74 74 73 73 73 73 73 73 74 74 77 84 98 97 94 91 88 86 87 88 84 84 83 79 74 68 67 70 77 81 83 83 84 84 83 82 81 82 80 78 78 81 83 84 85 83 82 82 81
86 84 82 82 83 84 83 84 86 88 89 86 84 84 86 87 87 86 85 86 88 89 88 87 87 87 89 91 92 93 94 94 93 92 92 91 91 91 93 91 88 87 87 85 84 84 85 84 81 78 77 76 75 75 74 73 73 73 73 73 73 73 73 74 78 86 98 95 93 90 88 86 84 82 82 83 84 85 86 81 74 68 66 71 76 80 81 83 83 83 83 81 80 79 82 85 87 89 89 86 85 85 86
84 83 84 85 86 86 86 86 88 88 86 87 89 89 88 89 89 89 91 93 94 94 91 89 89 91 92 92 93 93 93 93 93 93 92 92 93 93 93 93 92 91 91 86 84 84 83 85 83 79 77 76 75 74 74 73 73 73 73 73 73 73 73 74 81 90 97 96 93 90 88 86 85 84 83 83 83 82 80 82 78 72 63 60 64 71 76 76 77 79 82 83 83 84 86 86 86 87 87 86 84 83 84
84 85 87 88 86 85 84 87 88 88 87 89 90 90 91 90 91 91 92 95 95 94 95 91 92 94 93 93 93 94 96 96 96 95 95 94 94 94 92 92 91 90 88 84 82 80 79 80 79 77 76 75 74 74 73 73 73 73 73 73 73 73 73 76 85 93 95 94 93 91 90 90 87 84 82 82 82 81 79 78 78 76 73 68 67 69 71 70 70 73 77 79 84 87 89 90 90 89 85 81 79 78 78
87 88 89 88 86 84 82 87 90 91 92 92 92 92 91 91 91 92 93 93 92 92 93 91 93 95 95 95 95 95 94 93 93 93 92 90 90 89 87 86 85 83 80 78 77 77 76 75 75 74 74 73 73 73 73 73 73 73 73 73 73 73 73 76 85 93 94 93 91 90 90 91 90 86 82 81 80 80 79 78 78 77 75 76 77 80 83 78 76 77 80 82 83 84 85 85 84 82 81 79 78 79 79
85 85 85 84 83 83 82 85 88 91 93 93 93 91 86 89 92 93 92 92 92 93 93 93 95 96 95 94 92 91 89 86 85 84 83 82 81 80 79 78 77 77 76 76 75 75 74 74 73 73 72 72 72 72 72 72 72 72 72 72 72 72 72 76 84 92 93 91 90 89 88 89 89 86 82 83 82 82 81 80 78 76 75 77 81 84 86 83 83 86 90 89 90 91 89 87 86 85 83 83 84 86 88
79 77 76 76 76 76 77 77 80 84 88 88 89 88 84 88 91 93 94 92 93 94 95 95 94 93 90 87 84 82 80 79 78 77 76 76 76 75 75 75 75 75 75 74 74 74 73 73 72 72 72 72 71 71 71 71 71 71 71 71 71 71 71 75 81 88 91 89 88 87 85 85 84 82 79 80 81 83 84 83 81 79 79 84 86 87 85 86 87 88 92 91 91 93 93 92 91 89 87 85 86 89 95
72 71 70 69 69 68 67 69 71 74 77 79 83 87 87 91 93 94 95 95 95 94 94 92 90 86 83 81 79 77 76 76 76 75 75 75 74 74 74 74 74 74 74 73 73 72 72 71 71 71 71 70 70 70 70 70 70 70 70 70 70 70 69 72 78 85 87 88 86 84 83 82 81 79 79 79 80 81 81 81 81 83 87 90 90 89 88 87 88 89 90 90 91 92 94 94 93 92 88 87 90 94 98
68 66 65 65 65 66 66 67 67 69 71 74 79 84 89 92 94 95 96 95 93 91 88 86 83 81 79 77 76 76 76 76 76 75 75 74 73 73 73 73 73 72 72 71 71 70 69 68 68 68 67 67 67 67 67 67 67 68 68 68 68 68 68 69 73 78 82 85 84 82 82 82 82 82 83 82 81 80 80 82 84 87 90 88 84 81 81 83 84 85 85 85 85 87 90 93 93 93 93 92 93 95 95
64 62 61 62 63 65 66 68 68 69 70 73 75 78 84 88 91 93 92 90 87 85 83 82 80 79 77 76 76 76 75 75 75 75 74 73 73 72 72 71 71 71 70 69 68 67 66 66 65 65 64 64 64 64 64 64 64 65 65 66 66 66 66 67 69 72 76 79 80 80 81 83 85 87 89 90 89 87 86 85 84 83 82 80 79 79 81 85 87 88 89 86 84 83 85 86 88 92 97 97 98 97 93
60 60 60 62 64 66 67 68 69 70 71 72 74 76 78 83 86 86 85 83 83 82 81 80 79 77 76 76 75 75 75 74 74 74 74 73 72 71 70 70 69 69 68 67 66 65 64 64 63 63 62 62 61 61 61 60 61 61 62 63 63 64 64 65 67 70 73 76 77 79 81 83 86 88 90 91 91 90 90 90 88 85 81 78 77 77 79 84 88 91 92 92 92 91 90 89 90 93 98 98 98 97 96
59 60 62 65 66 68 69 70 71 72 73 73 74 74 75 77 79 80 81 82 82 82 80 79 78 77 76 76 75 75 74 74 74 73 73 72 70 69 68 68 67 67 66 65 64 63 62 61 60 60 59 58 58 57 56 56 56 57 58 59 60 61 63 65 68 70 74 76 79 82 84 86 86 85 85 86 86 86 87 89 90 89 88 83 79 77 78 85 89 92 93 94 95 96 97 96 96 97 98 98 97 97 96
61 63 66 67 68 69 70 71 72 73 74 75 75 75 75 76 78 80 82 83 82 81 78 77 76 76 76 75 75 74 73 73 72 72 71 69 67 66 66 65 64 63 62 61 60 59 57 57 56 55 54 53 52 51 50 50 51 52 52 54 57 60 64 68 71 74 77 79 81 83 84 84 82 80 80 80 79 78 79 82 85 87 90 90 85 80 81 87 91 93 95 95 95 95 96 97 98 98 98 98 97 95 92
64 66 68 68 69 71 72 72 73 74 75 75 76 76 76 77 80 82 83 83 81 79 77 76 76 75 75 74 73 72 72 71 70 68 67 65 63 63 62 61 60 59 57 56 54 53 52 51 50 49 48 47 47 46 45 45 46 47 47 49 54 60 67 72 75 76 77 78 78 78 78 76 75 74 74 73 72 72 74 76 77 80 84 88 87 86 86 89 91 92 95 94 92 92 95 95 96 98 98 98 96 93 90
67 68 69 71 72 73 73 74 74 74 75 76 76 77 77 79 81 83 84 81 79 77 76 76 75 74 73 71 70 69 68 66 65 63 62 60 60 59 58 57 55 54 52 51 49 48 47 46 45 45 44 43 43 42 41 41 42 42 43 45 50 57 66 72 75 75 74 74 73 73 72 71 70 70 69 69 68 68 69 71 73 75 77 83 86 86 83 83 83 85 88 88 89 91 94 92 92 94 98 99 98 96 94
69 71 72 73 74 74 74 75 75 75 76 77 77 78 78 79 81 83 82 79 77 77 76 76 74 73 70 67 65 64 62 60 59 58 57 56 55 54 53 52 51 50 48 47 46 45 44 43 42 42 41 41 41 40 39 39 39 39 39 41 45 51 59 67 72 73 72 71 70 70 69 69 68 68 67 67 66 66 67 67 68 71 74 79 80 78 75 73 73 74 75 76 78 83 89 89 88 87 90 92 95 97 97
72 73 74 74 75 75 75 76 77 77 77 77 78 78 76 77 78 79 79 78 77 76 76 74 73 70 65 62 60 59 57 55 54 54 53 52 51 50 49 48 47 46 44 43 43 42 41 40 39 39 39 39 39 38 38 37 38 38 38 39 41 45 51 59 67 72 72 71 70 69 69 68 67 66 65 65 65 66 65 65 67 69 70 76 76 74 73 72 73 74 74 74 74 75 78 83 85 84 81 79 83 88 94
74 75 75 75 75 76 77 78 79 79 77 78 80 80 78 77 77 77 77 76 75 74 73 71 68 64 59 56 55 54 52 51 50 50 49 48 47 46 44 43 42 41 40 39 38 37 36 35 35 35 35 36 36 35 35 36 37 37 38 38 39 41 45 53 61 68 71 70 69 68 68 67 66 65 64 63 65 65 64 64 66 67 65 72 76 76 76 75 77 80 82 82 82 82 80 80 81 81 80 76 74 76 81
76 76 75 75 76 77 78 79 80 80 79 78 79 80 78 77 77 76 75 74 72 69 67 66 62 58 53 50 49 48 47 46 45 45 44 43 42 40 39 37 36 35 34 33 32 31 31 30 30 31 31 32 32 32 33 34 36 37 38 38 38 40 43 49 57 64 68 69 68 67 67 66 65 64 62 63 64 65 64 64 66 66 64 68 72 74 75 75 76 78 80 83 85 86 86 84 82 81 78 76 74 71 69
77 77 76 77 78 79 78 79 80 80 79 78 78 78 77 76 76 76 73 69 66 63 59 57 54 50 46 44 43 43 42 41 41 40 39 38 36 34 33 31 29 28 27 27 26 26 26 27 27 28 29 29 30 30 31 34 35 37 37 37 38 39 42 47 55 63 69 70 68 66 65 65 64 64 62 63 64 65 64 65 65 66 65 67 69 70 71 72 72 72 73 75 77 80 82 84 84 81 77 75 73 71 68
79 78 76 77 78 79 78 78 80 80 78 78 79 79 79 79 80 77 70 64 59 55 52 49 45 42 40 39 38 38 37 37 36 36 34 33 31 29 27 25 24 23 23 23 23 23 24 25 26 27 28 28 29 30 31 33 34 35 35 36 37 39 41 45 53 61 69 71 70 67 65 64 64 64 62 62 63 65 65 66 65 65 66 67 68 68 68 70 70 70 69 69 69 69 71 74 74 73 73 72 71 70 70
79 77 74 76 78 78 78 79 81 82 82 84 85 85 83 82 78 71 64 58 52 48 46 43 41 39 37 35 35 34 33 33 32 30 29 27 25 23 22 21 20 20 20 20 21 22 24 25 26 27 28 28 29 29 29 30 31 32 33 34 35 37 40 43 50 57 65 69 70 70 68 66 64 63 62 63 64 65 66 66 66 66 66 65 65 65 65 67 67 68 68 68 67 66 66 67 67 67 67 68 68 68 68
78 76 74 76 78 79 80 81 81 82 83 84 83 80 74 73 68 62 57 53 49 45 43 41 39 37 35 33 31 30 28 28 26 24 23 22 20 19 18 18 18 18 19 20 21 23 25 26 26 27 28 28 29 29 28 28 29 30 31 31 33 34 37 42 47 53 60 64 67 68 68 66 65 63 64 62 63 64 64 64 64 64 63 62 62 63 64 63 64 65 67 67 66 65 64 65 65 65 64 64 64 64 65
77 76 76 79 80 81 81 81 81 80 81 81 76 70 63 61 59 56 52 49 46 44 42 40 37 34 32 29 26 25 23 21 19 18 18 17 17 17 17 17 17 18 19 21 22 24 26 26 27 27 28 28 28 28 28 29 29 29 30 30 31 32 35 39 43 48 53 57 61 63 65 65 65 65 64 62 61 62 62 63 62 62 62 62 62 62 62 62 63 64 64 64 64 63 63 63 63 62 61 61 61 61 61
77 78 80 84 85 84 82 79 76 74 70 68 64 60 55 52 51 49 46 44 42 40 39 36 33 30 27 23 21 19 18 17 16 16 16 16 16 16 17 17 18 19 21 22 23 25 26 27 27 27 27 27 27 28 28 29 29 29 30 30 30 30 31 32 35 39 43 48 52 56 58 60 61 62 62 62 61 60 60 60 60 60 61 61 61 61 60 60 60 60 61 61 60 60 61 61 61 61 61 61 60 60 60
77 79 82 82 80 77 75 71 68 65 60 59 57 54 49 46 44 43 41 39 38 36 34 31 27 24 20 18 16 15 15 15 15 16 16 16 16 16 16 17 18 20 23 24 25 25 26 26 26 26 26 26 26 26 26 26 26 27 27 28 28 28 28 28 28 29 32 37 42 47 51 53 56 58 60 59 59 58 58 56 57 59 59 59 58 58 57 56 56 57 57 57 58 58 59 59 60 60 60 60 60 60 60
77 77 79 76 73 70 67 63 60 56 52 51 49 47 43 41 40 39 37 36 33 31 27 24 20 18 15 14 14 14 15 15 16 16 16 17 16 16 16 17 18 21 25 25 26 26 26 26 26 26 24 24 23 22 22 23 23 23 24 24 25 25 25 25 25 25 25 28 33 38 42 46 49 52 56 55 56 55 54 55 55 55 55 55 54 54 54 54 55 55 55 55 56 56 56 57 58 58 59 60 61 61 61
76 76 76 73 70 67 60 58 54 50 46 44 43 42 40 38 36 34 32 29 26 22 18 16 15 14 13 14 15 16 17 17 17 17 17 17 16 16 15 15 18 21 25 26 26 26 27 27 26 24 23 21 21 20 20 21 21 21 21 21 21 22 22 22 22 22 21 22 24 28 33 37 41 45 48 50 51 52 52 52 51 51 51 52 53 53 53 54 54 54 54 55 55 55 55 55 56 58 59 60 61 61 61
76 75 75 73 69 64 58 54 51 47 43 41 40 38 35 33 29 26 23 20 17 15 13 13 14 15 15 16 17 18 18 18 17 17 18 17 16 15 14 14 16 19 24 25 26 26 27 27 26 24 21 20 19 20 20 20 20 20 19 19 19 19 19 19 19 18 18 18 18 20 23 27 31 35 39 42 44 46 46 46 47 48 48 51 51 52 52 52 52 53 54 54 54 54 55 56 58 60 60 60 60 60 61
77 76 76 74 68 61 56 51 48 44 41 37 34 31 27 24 20 17 15 14 13 13 14 15 16 17 18 18 18 18 18 18 18 18 18 17 16 15 14 14 14 17 22 25 25 25 26 26 26 24 21 19 18 18 19 18 18 19 18 18 18 18 18 17 17 16 16 15 15 16 16 19 22 26 30 37 40 41 43 44 45 46 46 47 47 48 49 50 51 52 53 53 54 55 56 57 58 59 60 60 60 60 61
81 80 78 72 65 57 52 47 43 39 35 32 27 23 20 17 15 13 12 13 13 14 16 17 18 18 19 19 19 19 18 18 18 18 18 17 16 15 15 14 14 15 18 22 24 24 25 26 26 25 22 19 17 16 17 17 17 18 18 17 17 17 17 16 16 15 15 15 15 15 15 16 18 20 25 31 35 37 40 42 42 42 42 43 45 47 48 50 51 51 52 53 54 55 56 57 58 59 59 59 60 60 61
85 82 76 68 60 53 49 44 40 35 31 26 22 18 15 13 12 12 12 13 15 16 17 18 18 19 19 19 18 18 17 17 18 18 18 17 17 16 15 15 14 14 15 19 22 23 24 24 25 25 23 20 17 16 15 15 16 17 17 17 17 17 17 16 16 15 15 15 15 15 16 16 17 18 21 29 33 36 37 37 36 36 38 40 43 46 49 51 52 52 53 53 54 55 56 57 58 59 59 59 60 60 62
84 78 70 61 55 51 47 41 35 30 26 21 18 15 13 13 12 13 13 15 16 17 18 18 18 19 19 18 17 16 16 16 17 17 17 17 17 16 16 15 15 15 14 16 18 21 22 23 24 24 24 22 19 17 15 15 15 16 16 16 17 17 17 16 16 15 15 15 15 16 16 17 17 17 18 24 29 31 32 31 30 29 31 33 39 46 51 53 54 55 55 55 55 56 57 58 59 59 59 59 60 61 61
77 70 61 56 51 46 42 35 30 26 21 18 16 14 13 13 14 14 15 16 17 17 18 18 18 18 18 17 16 16 15 15 15 16 16 16 16 16 16 16 16 15 14 15 16 18 20 21 22 23 24 23 21 18 16 15 15 15 15 16 16 17 17 16 16 16 16 16 16 16 17 17 17 17 17 19 22 25 25 24 23 24 25 27 33 42 54 57 58 58 57 56 56 57 58 59 60 60 59 60 60 61 60
68 62 56 51 45 40 35 29 25 21 18 16 15 15 15 15 15 15 15 16 17 17 18 18 18 18 17 17 16 15 14 14 14 15 15 15 15 15 15 16 16 16 15 14 15 16 18 19 21 22 22 23 22 20 17 15 15 14 15 16 16 16 17 16 16 16 16 16 16 17 17 17 16 16 16 16 17 18 18 17 17 18 21 24 27 36 52 57 60 60 58 57 58 59 59 61 61 60 60 61 61 60 59
61 56 50 44 39 33 27 23 20 17 16 16 15 15 16 16 16 15 15 16 16 16 16 16 16 16 15 15 15 15 14 14 13 13 14 14 14 14 15 16 16 16 15 14 14 14 15 17 19 20 21 21 21 21 19 17 15 14 15 15 16 16 17 16 16 16 16 17 17 17 17 16 16 15 15 15 15 15 15 15 15 15 17 21 25 31 43 54 58 59 59 57 59 60 58 60 61 61 61 61 60 59 59
55 49 42 36 30 26 21 19 17 17 17 17 16 16 16 16 14 14 14 14 15 15 15 14 14 14 14 13 13 13 13 13 12 12 13 13 13 14 15 16 16 16 15 14 14 14 14 16 17 19 20 20 21 21 20 18 16 15 14 15 16 16 17 16 16 16 16 17 17 17 17 16 15 15 14 14 14 14 14 14 14 14 15 19 23 28 35 49 56 58 59 58 59 60 59 59 60 61 61 60 59 59 60
44 38 31 27 24 21 19 18 18 18 19 18 17 16 16 14 12 12 12 12 13 13 13 12 12 12 12 12 12 12 12 12 11 11 11 12 13 14 15 16 16 16 15 14 14 14 14 15 16 18 19 19 20 20 21 18 16 15 14 15 16 16 17 16 16 16 16 16 16 16 16 15 15 14 13 13 13 13 13 13 13 13 14 17 22 27 30 39 48 55 57 57 58 59 60 60 60 60 59 58 59 60 61
32 27 24 22 21 20 19 19 20 20 20 19 17 15 14 12 11 10 10 10 11 11 11 10 10 11 11 11 11 11 11 11 10 11 11 12 13 14 15 16 16 15 15 15 14 14 14 14 15 17 18 18 19 20 20 18 16 14 14 15 16 16 17 16 16 16 16 16 16 16 15 15 14 13 13 12 12 12 12 12 12 13 14 16 20 24 27 31 37 44 51 54 56 58 60 61 60 59 57 58 60 61 63
24 22 22 22 21 21 21 21 21 21 20 18 16 14 13 11 10 9 9 9 9 9 9 9 10 10 10 10 10 10 10 10 10 10 11 12 13 14 16 16 16 15 15 15 14 14 14 14 15 16 17 18 19 19 19 17 16 14 14 15 16 16 16 16 15 15 15 16 16 15 15 14 14 13 13 13 13 12 12 11 12 13 14 15 17 20 23 27 31 34 38 43 50 56 60 61 60 58 58 59 61 62 63
21 21 22 22 22 22 22 22 21 20 18 16 15 14 13 11 9 9 8 8 8 8 8 8 9 9 10 10 10 10 10 10 10 10 12 13 14 16 17 16 15 15 15 15 14 14 14 14 15 16 17 18 18 18 18 16 14 14 13 14 15 16 16 15 15 15 15 16 16 15 15 14 13 13 13 13 14 14 13 12 12 12 13 14 15 16 18 22 26 28 30 32 38 46 59 61 61 60 59 60 62 62 62
22 23 23 23 23 23 22 21 20 18 17 17 16 15 13 10 9 8 7 7 7 7 7 7 8 9 9 10 10 10 10 10 10 11 13 14 16 18 18 17 16 15 15 15 14 14 14 14 15 16 18 18 18 17 16 14 13 13 13 14 15 15 15 15 15 15 16 16 16 15 15 14 13 13 13 13 14 14 14 13 13 13 13 13 14 15 16 18 19 21 24 27 31 40 58 60 60 60 60 61 61 61 60
24 24 24 23 23 23 21 20 18 17 17 17 17 15 12 9 8 7 6 6 6 6 6 7 7 8 9 10 10 10 10 10 11 12 14 17 19 21 20 18 16 15 15 14 14 14 14 15 16 17 18 17 16 15 14 13 13 13 13 13 14 14 14 15 15 16 16 16 16 15 14 14 13 13 13 14 14 14 14 14 14 13 13 13 13 14 15 16 17 18 20 23 30 40 56 59 61 61 61 60 60 59 60
26 26 25 23 22 22 20 18 17 17 17 16 15 12 9 7 6 6 5 5 5 6 6 6 7 8 9 11 12 11 11 11 11 13 17 21 22 22 21 19 18 16 15 14 14 14 15 16 17 17 16 15 14 13 13 12 12 12 12 13 13 14 15 15 16 16 17 16 16 15 14 14 13 13 13 14 14 14 15 15 15 14 14 13 13 14 14 15 16 17 18 21 28 39 52 57 59 60 60 59 59 59 60
28 27 25 22 21 20 20 18 17 16 15 14 12 10 7 6 5 5 5 5 5 5 5 6 7 8 10 14 15 14 13 13 13 16 23 26 26 25 22 22 21 19 17 15 14 14 16 17 17 16 14 13 12 12 12 12 12 13 13 14 15 16 16 17 17 17 17 17 16 15 15 14 14 14 14 14 14 14 14 15 15 15 15 15 15 15 15 16 16 17 19 23 28 35 44 52 56 57 59 60 59 59 60
29 28 25 22 21 20 20 18 16 15 13 11 10 8 7 6 6 5 5 5 5 5 5 6 7 9 10 14 16 16 15 15 17 20 27 29 31 31 31 29 25 21 18 16 15 14 16 16 16 15 13 13 13 13 14 14 15 15 16 16 17 17 18 18 18 18 18 17 16 16 15 14 14 14 14 14 14 14 14 14 14 15 15 16 17 17 18 18 18 18 20 22 26 30 35 40 46 52 56 59 59 59 61
27 26 23 22 22 21 18 16 15 14 12 11 10 9 7 6 6 6 6 5 5 5 5 6 7 9 10 12 14 16 16 18 20 24 32 31 31 32 34 36 30 22 21 19 17 15 14 14 14 14 15 15 15 16 16 16 17 17 17 18 18 18 19 19 19 19 18 18 17 16 16 15 15 15 15 15 15 15 14 14 15 15 16 17 18 18 19 19 19 20 20 22 24 26 28 31 34 40 52 58 60 60 62
24 22 21 22 21 19 16 14 13 12 11 10 9 8 7 6 6 6 6 6 6 5 5 6 8 9 10 12 14 16 18 20 24 27 27 28 29 30 32 34 30 26 27 24 22 19 17 18 19 19 20 19 18 17 17 17 17 18 18 18 19 19 19 19 19 19 18 18 18 18 17 17 17 16 16 16 16 15 15 15 15 16 16 17 18 19 20 20 20 21 21 22 23 24 25 27 30 36 47 56 60 61 61
21 20 20 20 19 16 13 12 11 10 9 9 8 8 6 6 6 6 6 6 6 6 6 7 8 9 10 13 15 17 18 21 24 27 28 25 26 28 30 33 35 37 40 31 24 20 21 22 22 21 21 19 18 17 17 18 18 18 19 19 19 19 19 19 19 19 19 19 19 19 19 19 18 18 18 17 17 17 16 16 16 16 17 18 19 21 22 22 22 22 23 23 24 24 25 26 30 36 47 56 61 62 61
20 19 19 18 16 13 10 9 8 8 7 7 8 8 7 7 6 7 7 7 7 8 8 9 9 10 11 17 18 17 17 20 22 24 27 26 26 28 31 34 37 39 37 32 27 23 21 24 24 22 19 18 17 17 18 18 18 19 19 19 19 19 19 19 19 19 20 21 21 22 22 21 21 20 20 19 19 18 18 17 17 17 18 19 21 22 23 23 23 24 25 26 27 27 28 29 33 40 49 58 61 62 62
19 18 17 15 13 11 9 9 8 8 7 7 8 9 8 7 7 7 7 8 9 9 10 10 10 11 12 16 17 17 16 18 20 22 24 26 26 27 31 35 32 28 25 25 26 26 26 28 26 22 17 17 17 18 19 19 19 19 19 19 19 19 19 19 20 20 21 22 23 23 24 24 24 23 23 22 22 21 19 19 19 19 20 21 22 23 24 24 26 27 29 31 32 32 32 33 36 42 50 58 61 61 60
18 17 16 14 12 11 10 10 10 9 8 8 9 10 8 8 8 8 9 10 10 11 12 12 12 13 13 14 16 17 18 20 21 22 24 25 26 27 28 32 33 33 30 28 28 29 28 30 27 22 18 18 18 19 19 19 19 19 19 19 19 19 20 20 21 22 22 23 24 25 25 26 26 25 25 24 24 23 22 22 21 21 22 23 23 24 26 27 29 31 33 35 35 35 32 33 36 40 45 55 60 60 59
18 17 16 14 12 12 11 11 10 10 9 8 9 9 8 8 9 10 11 12 12 13 13 13 14 14 16 16 17 18 21 25 24 23 24 25 25 26 28 31 32 33 33 34 37 38 35 31 28 25 21 19 19 19 19 19 19 19 19 19 19 20 20 21 22 24 25 26 26 26 26 26 26 26 26 26 26 26 25 25 24 23 23 24 25 26 27 29 30 31 32 32 32 31 30 31 33 35 39 50 56 59 58
18 17 16 14 12 12 12 12 11 10 10 8 8 8 8 9 10 12 12 13 14 15 15 15 15 16 17 18 18 20 24 27 27 25 24 26 27 27 28 28 29 31 34 36 38 40 42 35 30 28 27 23 21 19 19 20 20 20 20 20 20 21 22 23 25 26 27 27 27 27 27 27 27 27 28 28 28 28 27 26 26 25 25 26 26 27 28 29 29 29 28 28 28 28 29 31 32 34 39 48 54 57 58
17 16 15 13 12 12 12 12 11 10 10 9 8 9 9 11 12 13 14 14 15 16 17 16 17 17 18 19 19 21 25 28 28 27 26 29 31 31 30 30 30 30 31 33 34 36 39 38 36 35 34 30 26 22 20 19 19 20 20 20 21 22 24 26 27 27 27 27 27 26 27 27 28 28 29 29 29 29 28 28 27 27 28 28 29 29 29 30 29 29 28 28 29 29 30 31 32 34 39 50 55 57 57
16 15 13 12 12 12 13 12 12 11 10 10 9 10 11 13 14 15 16 17 17 18 18 18 18 19 20 20 21 22 25 27 29 29 29 32 34 34 32 32 32 32 33 33 34 34 34 37 39 41 41 38 32 26 22 20 19 19 19 21 23 24 25 26 27 27 27 27 27 27 27 28 28 29 29 29 29 29 29 30 30 30 30 30 29 29 29 30 31 31 31 31 31 31 31 32 33 36 41 53 57 58 59
Wind_Speed
3 3 3 2 1 2 2 2 2 2 3 3 4 4 3 3 4 4 5 6 6 6 7 7 7 7 8 8 9 9 9 9 9 9 9 9 8 8 8 7 7 8 8 8 8 9 9 10 11 12 12 13 13 14 14 14 13 13 12 11 10 9 8 8 7 7 8 8 9 10 10 10 11 10 10 10 10 10 10 10 9 9 10 10 11 11 11 10 11 11 11 11 11 11 11 11 11 11 11 11 12 12 13
3 3 2 1 1 2 3 2 2 2 3 3 4 4 4 4 5 5 6 6 6 6 7 7 8 8 9 9 9 9 9 9 9 9 9 9 8 8 7 7 7 7 8 9 9 10 10 11 12 13 13 13 13 13 13 13 12 12 11 11 10 9 9 8 8 7 8 8 9 10 10 11 11 11 11 11 11 11 11 12 12 12 12 11 11 11 11 11 11 11 11 11 11 11 11 11 11 11 11 11 12 12 13
1 1 1 1 2 3 3 3 2 2 3 3 4 4 5 5 5 6 6 6 6 7 7 8 8 9 9 9 9 9 9 9 9 9 9 8 8 8 7 7 7 7 8 9 9 10 10 11 11 11 11 12 11 11 11 11 11 11 10 10 9 9 8 8 8 8 8 8 8 9 10 11 11 11 12 12 12 12 12 13 13 14 13 13 12 11 11 12 12 11 11 12 11 11 11 11 11 12 12 12 12 12 13
0 0 1 2 3 4 3 3 3 3 3 3 4 4 5 5 6 6 5 6 6 7 8 8 9 9 9 9 8 8 9 9 9 9 8 8 8 8 8 7 7 8 8 8 9 10 10 10 10 10 10 10 10 10 10 10 10 10 9 9 8 8 8 8 8 8 8 8 8 9 9 10 10 11 12 12 13 13 14 14 14 14 14 14 12 11 11 12 12 12 12 12 11 11 11 12 12 12 12 12 12 12 13
1 1 2 2 3 3 3 3 3 3 3 3 3 4 4 5 5 6 6 6 6 7 8 8 9 9 8 8 8 8 9 9 9 8 8 8 8 7 7 8 8 8 8 8 9 9 9 9 9 9 9 9 9 8 9 9 9 8 8 8 7 7 7 8 8 8 7 7 7 7 8 8 9 9 10 11 12 13 13 14 14 14 14 14 13 11 10 11 12 12 12 13 12 12 12 13 13 13 13 13 13 13 13
1 1 2 2 3 3 3 2 2 2 3 3 3 4 4 5 5 6 6 6 6 7 7 8 8 8 8 8 8 8 8 8 8 8 8 8 7 7 7 8 8 8 8 8 8 8 9 9 9 8 8 8 8 8 8 8 8 8 7 7 7 7 7 8 8 7 7 6 7 7 7 7 8 8 9 10 10 11 11 12 13 13 13 13 12 11 11 11 12 12 13 13 13 13 14 15 15 14 13 13 13 14 13
1 0 1 2 3 3 3 2 2 2 2 3 3 3 4 4 5 5 6 6 6 7 7 7 7 8 8 8 8 8 8 8 8 7 7 7 7 7 8 7 8 8 8 8 8 8 8 8 8 8 8 8 7 7 8 8 7 7 7 7 7 7 8 8 8 7 6 6 7 6 7 7 8 8 9 9 9 10 10 11 11 11 12 12 12 12 11 12 12 12 13 13 14 15 15 16 15 15 13 14 14 14 14
1 1 1 2 3 4 4 3 2 2 2 3 3 3 4 4 5 5 6 6 6 6 7 7 7 7 7 7 7 7 8 7 7 7 6 7 7 7 6 6 7 7 7 7 7 7 7 7 8 8 8 8 8 8 8 8 8 8 8 7 7 8 8 8 8 8 7 7 7 7 7 8 8 9 9 9 9 9 10 10 10 10 10 11 11 12 12 11 12 13 13 14 15 16 16 16 16 15 14 14 15 15 15
1 2 2 3 4 4 4 4 3 3 3 3 3 4 4 4 5 5 6 6 6 6 6 7 7 7 7 7 7 7 8 8 7 6 6 6 6 6 5 5 6 6 7 7 7 7 7 7 7 8 8 8 9 9 9 9 9 9 8 8 8 9 9 9 9 8 8 8 8 8 8 8 8 9 9 9 9 9 9 10 10 10 10 10 10 11 11 11 12 13 15 16 17 17 16 16 15 14 14 15 16 16 16
2 2 2 3 3 4 5 4 4 4 4 4 4 4 4 4 5 5 6 6 6 6 6 6 7 8 7 7 7 7 7 7 6 6 6 6 6 6 6 6 6 7 7 7 7 7 7 8 8 8 9 9 10 10 10 10 10 9 9 9 9 9 10 9 9 8 8 8 8 8 8 8 8 8 8 8 8 9 9 10 10 10 10 11 12 12 12 12 13 14 15 17 18 17 15 14 13 12 13 15 17 17 17
3 2 2 2 3 4 5 4 4 3 4 4 4 4 4 4 5 5 6 6 6 6 6 6 7 7 7 7 7 7 7 7 7 7 7 7 7 7 7 7 7 7 8 8 8 8 8 8 8 8 9 9 10 10 10 10 10 10 10 10 10 10 10 10 9 8 8 8 8 8 8 8 8 8 8 9 9 9 9 10 10 10 11 12 13 14 15 15 15 15 15 15 15 15 15 15 14 14 15 16 17 18 17
1 0 1 2 3 4 4 4 4 4 3 3 3 3 4 5 5 6 6 6 6 6 6 6 6 6 6 7 7 7 7 7 8 8 8 8 8 9 9 8 8 8 8 8 8 8 8 7 7 8 8 8 9 10 10 10 10 10 10 10 10 10 11 10 9 8 8 8 8 8 8 8 8 9 9 9 10 10 10 10 10 11 12 14 15 15 16 16 16 16 16 16 16 15 15 15 15 15 17 18 19 18 17
2 2 3 4 4 5 5 5 5 4 4 4 3 4 4 5 5 6 6 6 6 6 6 6 6 7 7 7 7 8 8 8 9 9 9 9 8 8 8 8 8 8 8 8 7 7 7 7 7 7 8 8 9 9 10 10 10 10 10 10 10 11 11 11 10 8 8 8 8 8 8 9 9 9 9 9 10 10 10 11 12 13 13 14 14 14 14 13 13 14 14 15 16 17 17 17 17 17 18 19 19 17 16
3 3 4 4 5 5 5 5 5 5 4 4 4 4 4 5 5 5 5 5 5 5 6 6 7 7 7 8 8 8 9 9 9 9 9 9 8 8 8 8 8 8 8 8 8 8 8 8 8 8 9 9 9 10 10 10 10 11 11 11 11 11 11 11 10 9 7 7 8 8 9 9 10 10 10 10 9 10 11 12 13 14 13 14 15 15 14 13 13 13 13 13 13 14 15 16 16 17 18 17 16 14 14
3 3 3 4 4 4 4 4 4 4 3 3 3 4 4 4 4 4 4 4 5 6 7 7 8 8 7 7 8 8 8 9 9 10 10 9 9 8 8 8 8 8 8 8 8 9 9 9 9 10 10 10 10 11 11 11 11 11 11 11 11 11 11 11 10 9 8 7 7 8 9 10 10 11 11 11 10 11 12 12 12 13 13 14 15 15 15 14 14 13 13 12 12 12 13 13 13 13 15 14 12 12 12
2 3 3 3 3 3 2 2 3 3 3 3 3 4 4 4 4 4 4 5 6 7 8 8 8 7 7 7 8 8 8 9 9 9 10 9 9 8 8 8 8 8 9 9 9 10 10 10 11 11 11 11 11 11 11 11 10 11 11 11 11 11 10 10 9 9 8 7 7 7 8 10 11 11 11 12 12 13 13 13 12 12 11 11 12 13 14 14 14 14 14 14 13 13 13 13 12 12 12 12 11 10 11
2 2 2 2 1 1 1 2 2 2 3 3 3 4 4 4 4 5 6 7 7 8 8 7 7 7 7 7 7 8 8 8 9 9 9 9 8 8 8 8 9 9 9 10 10 10 10 10 11 10 10 10 10 10 10 10 10 10 10 10 10 9 9 9 9 8 8 7 7 7 7 8 9 10 10 10 12 13 13 13 12 11 10 10 10 10 11 11 11 11 12 12 12 13 13 12 11 11 10 10 9 9 10
1 1 1 1 0 0 1 2 2 2 2 2 3 4 4 5 5 6 7 7 8 7 7 7 7 7 7 7 7 8 8 8 8 8 8 7 7 8 8 8 9 9 9 10 10 10 10 10 10 10 9 9 9 9 9 9 9 9 9 9 8 8 8 8 8 8 8 7 7 6 7 7 7 7 8 8 10 11 12 12 11 10 10 10 9 9 9 9 9 8 9 9 9 9 9 9 9 9 8 8 8 9 10
1 1 1 1 1 1 1 2 2 2 2 1 2 3 5 5 6 6 6 6 7 7 6 7 7 7 7 7 7 7 7 7 7 6 6 6 7 7 8 8 9 9 9 9 9 9 9 9 9 9 8 8 8 8 8 8 8 8 8 7 7 7 7 8 8 7 7 6 6 6 6 6 6 6 7 7 7 8 9 10 10 10 9 9 8 8 10 11 10 10 9 8 8 8 8 9 9 8 8 8 9 10 11
2 1 1 1 1 1 2 2 1 1 2 1 1 2 4 5 6 6 6 6 6 6 7 7 8 7 7 7 6 6 6 5 5 5 6 6 7 7 8 8 8 8 8 8 8 8 8 8 8 8 8 8 8 8 8 8 8 8 7 6 5 6 6 7 7 7 6 6 6 6 6 6 6 6 6 6 6 6 7 7 8 8 8 8 7 8 10 11 11 12 11 10 10 9 9 8 8 8 8 9 10 11 11
2 2 2 1 1 1 1 1 1 2 3 3 1 2 3 4 5 6 6 6 6 6 7 8 8 8 7 6 5 4 4 4 4 5 5 6 7 7 8 8 8 9 9 9 9 9 9 9 8 8 8 8 8 8 7 7 7 7 6 5 4 4 5 6 7 7 6 6 6 6 6 6 6 6 6 6 7 7 7 7 7 8 8 8 8 9 10 11 11 10 10 11 11 11 10 9 7 7 8 9 10 10 10
3 2 1 1 1 1 0 1 1 2 3 3 2 1 2 4 5 5 6 6 7 7 7 8 7 7 6 5 4 4 4 4 4 5 6 6 7 8 8 9 9 9 10 10 10 10 9 9 9 9 9 8 8 8 7 7 6 6 6 5 4 3 3 4 5 6 6 6 5 6 6 6 6 6 6 7 7 7 6 6 7 7 8 9 10 11 11 11 12 12 12 11 10 10 10 9 8 7 8 10 10 9 8
3 2 1 1 1 1 0 1 1 1 2 3 3 2 2 3 5 5 6 7 7 6 7 7 6 5 4 4 4 4 4 5 5 6 7 8 8 9 9 10 10 11 11 11 11 10 10 10 9 9 8 8 8 7 6 6 5 5 5 4 4 3 3 3 4 5 6 6 5 5 6 6 6 6 6 6 6 6 6 6 6 7 6 8 10 11 11 10 11 12 12 12 11 10 9 8 8 8 8 9 10 10 8
3 2 1 1 1 1 1 1 1 1 1 2 2 2 3 4 5 5 5 6 5 5 5 5 4 3 3 4 4 5 5 6 7 7 8 9 9 10 10 11 11 11 11 11 11 11 10 9 9 8 7 7 6 6 5 5 4 4 5 4 4 3 3 2 3 5 6 6 5 5 5 6 6 6 6 6 6 6 5 5 6 6 6 6 8 9 9 9 9 10 10 10 10 10 9 8 8 7 8 8 9 9 9
2 1 1 2 2 1 1 1 2 2 2 3 3 4 4 5 5 5 4 4 3 3 3 3 3 3 4 4 5 6 6 7 8 8 9 9 10 10 10 11 11 11 11 11 11 10 9 9 8 7 6 5 5 4 4 4 4 4 5 4 4 3 3 1 2 4 6 6 5 5 5 5 5 6 6 6 6 6 5 5 5 5 6 5 6 7 8 8 8 8 8 8 8 8 8 7 6 6 7 7 8 8 9
2 2 2 2 2 1 1 2 3 3 3 4 5 5 4 4 3 3 3 3 2 2 2 2 3 4 5 6 7 7 8 8 8 9 9 10 10 10 10 10 10 11 10 10 10 9 8 7 6 5 4 4 4 4 4 5 5 5 4 4 4 3 3 1 1 3 6 7 7 6 5 5 5 6 5 6 6 6 5 5 5 5 6 6 6 6 6 7 8 8 7 7 7 6 7 6 6 6 6 6 7 7 7
2 2 2 2 2 2 2 3 3 4 4 4 4 3 3 2 2 2 2 1 1 2 2 3 4 5 6 7 8 8 8 9 9 9 9 9 9 9 9 9 10 9 9 9 8 7 7 5 5 4 3 3 3 3 5 5 5 4 4 4 4 3 3 2 1 3 5 7 7 7 7 6 6 6 5 5 6 6 6 6 6 6 6 7 7 6 6 7 7 8 8 7 7 6 6 6 7 7 7 7 7 7 7
3 2 2 3 3 3 3 3 4 4 3 2 2 2 1 1 1 1 1 1 1 2 3 4 5 6 7 8 8 9 9 9 9 9 9 9 9 9 9 9 9 8 8 8 7 6 5 4 3 3 3 2 3 3 4 4 3 2 2 2 2 2 2 2 2 2 4 6 7 8 8 8 7 6 6 6 6 6 6 6 7 7 7 7 7 7 7 7 7 8 8 8 8 8 7 8 8 8 8 8 8 8 8
4 3 3 4 5 5 4 4 4 4 3 2 2 1 1 1 1 0 0 1 2 3 4 5 6 7 8 8 8 9 9 9 9 9 9 9 9 9 9 9 8 8 8 7 6 5 4 3 2 2 2 2 2 3 3 2 2 1 1 1 1 1 2 2 2 2 3 5 7 7 8 8 8 8 8 6 6 6 6 7 7 7 8 8 8 8 8 8 8 8 9 9 9 9 9 9 9 9 10 10 10 9 9
6 5 5 5 5 5 4 4 4 4 3 3 2 2 1 1 1 0 1 2 3 4 5 6 6 7 8 8 8 8 9 9 8 8 8 8 9 9 9 9 8 8 7 6 5 4 3 2 2 1 1 2 2 2 2 2 1 1 1 1 1 1 1 1 1 0 1 3 5 7 7 7 8 8 8 8 7 7 7 8 8 8 9 9 9 9 9 9 9 9 9 9 9 9 9 10 10 10 10 10 10 10 10
7 6 6 5 4 4 4 4 4 4 4 3 3 2 2 1 0 1 2 3 4 5 5 6 7 7 8 8 8 8 8 8 8 8 8 8 8 9 9 9 8 7 7 6 5 4 3 2 2 1 1 2 2 2 2 2 2 2 2 2 2 2 2 2 2 2 1 2 4 5 6 6 7 8 9 9 8 8 7 8 9 10 10 10 10 10 9 9 10 10 10 10 10 10 10 10 10 10 10 11 11 11 10
8 7 7 6 4 4 4 5 5 4 4 3 3 2 1 1 1 2 3 4 4 5 6 6 7 7 8 8 8 8 8 8 8 8 8 8 9 9 9 9 8 7 6 5 4 4 3 2 2 1 2 2 2 2 2 2 2 2 2 2 2 3 3 3 3 3 3 3 3 4 5 6 6 7 9 9 9 8 8 9 9 10 10 10 10 10 10 10 11 11 11 11 11 11 11 11 11 11 11 11 11 11 11
10 9 8 6 5 5 5 5 5 4 4 3 2 2 1 2 2 3 4 4 5 5 6 6 7 7 7 7 8 8 8 8 8 8 8 9 9 10 10 9 8 7 6 5 4 3 2 2 2 2 2 3 3 3 3 3 3 3 3 3 3 3 3 3 3 3 3 3 3 4 5 5 6 7 7 8 9 9 9 9 10 10 10 11 11 11 11 11 11 11 11 11 11 11 12 12 11 11 11 11 11 11 11
11 10 9 7 6 6 5 5 5 4 4 3 2 2 2 3 3 4 4 4 5 5 6 6 7 7 7 7 7 8 8 8 9 9 9 9 9 10 10 10 9 7 5 4 3 3 2 2 2 2 3 4 4 3 3 3 3 3 3 4 4 4 4 4 4 4 4 4 4 5 5 5 6 6 7 7 8 9 9 10 10 11 11 11 12 12 12 12 12 12 12 12 12 12 12 12 12 11 11 11 11 11 11
12 11 9 8 7 7 6 5 5 4 3 3 3 3 3 3 4 4 4 5 5 6 6 7 7 7 7 7 7 8 9 9 9 9 9 10 10 10 10 11 10 8 6 4 3 3 2 2 2 3 3 4 4 4 4 4 4 4 4 5 5 5 6 5 6 6 6 6 6 6 6 6 7 7 7 8 9 9 9 10 11 11 12 12 12 12 12 12 13 13 13 13 13 12 12 12 12 12 12 12 12 11 11
11 10 9 8 8 7 6 6 5 4 3 3 4 4 4 4 4 5 5 5 6 6 7 7 7 8 8 8 9 9 10 10 10 10 10 11 11 11 11 12 11 10 7 5 4 3 2 2 2 2 3 4 5 6 6 5 5 5 5 5 6 7 7 7 7 7 8 8 8 8 8 8 8 8 8 9 9 10 10 11 12 12 12 13 13 13 13 13 13 13 13 13 13 13 13 13 13 12 12 12 12 12 12
9 8 8 8 8 7 7 6 5 4 4 4 4 4 4 4 4 5 5 5 6 7 8 8 9 9 9 10 11 11 11 11 11 11 12 12 12 12 12 13 12 11 8 6 4 3 3 2 2 2 3 4 5 7 7 6 6 6 6 6 7 7 8 8 9 9 9 9 10 10 10 10 10 10 10 10 10 11 11 12 12 13 13 13 13 13 13 13 13 13 13 13 13 13 13 13 13 13 13 13 13 13 13
8 8 8 8 8 8 7 6 5 5 4 4 4 4 4 4 5 5 6 6 7 8 8 9 10 10 10 11 11 12 12 12 13 13 13 13 13 14 14 14 13 12 10 7 5 4 3 3 2 2 2 3 5 6 7 7 7 7 7 7 7 8 8 9 10 10 11 11 11 11 11 11 11 11 12 12 12 12 13 13 14 14 14 14 14 14 14 14 14 14 14 14 14 14 14 14 13 13 13 13 13 13 13
8 9 10 10 9 8 7 6 5 5 4 4 4 4 4 4 5 6 7 7 8 9 9 10 10 10 10 11 11 12 12 13 13 14 15 15 15 15 15 15 14 13 10 8 5 4 4 3 3 2 2 2 3 5 7 8 8 8 7 7 7 8 9 9 10 11 11 12 12 12 12 12 12 13 13 13 14 14 15 15 16 16 16 15 15 15 15 15 14 14 14 14 14 14 14 14 14 14 14 14 14 14 14
10 10 11 11 10 9 7 6 6 5 4 4 5 5 5 5 6 7 7 8 8 9 9 10 10 11 11 11 11 12 12 13 14 15 15 16 16 17 16 16 15 13 11 8 6 5 4 4 4 3 3 3 3 4 6 8 9 9 8 8 8 8 9 10 10 11 12 13 13 13 13 13 13 14 14 15 15 16 16 17 17 18 17 17 16 15 15 15 15 15 15 14 14 14 14 15 14 14 15 15 15 15 15
11 11 11 11 10 9 8 7 6 5 5 5 5 5 5 5 6 7 7 8 8 9 9 10 10 11 12 12 12 13 13 14 15 16 17 17 17 17 17 17 15 13 11 9 7 6 6 5 5 4 3 3 3 4 6 8 9 10 10 9 8 8 9 10 11 12 13 13 14 14 14 14 14 15 15 16 17 17 18 18 19 19 19 18 17 16 16 16 15 15 15 15 15 15 15 15 15 15 15 15 15 16 16
12 12 12 11 10 10 9 8 7 5 5 5 5 5 5 5 6 6 7 8 8 9 9 10 11 11 12 12 13 13 14 15 16 17 17 18 18 18 18 17 15 13 11 9 8 7 7 7 6 5 4 4 4 4 6 7 9 11 11 10 9 9 9 10 11 12 13 14 14 14 15 15 15 16 17 17 18 18 19 19 20 20 20 19 18 17 16 16 16 16 15 15 15 15 15 15 15 16 16 16 16 16 16
13 12 12 11 11 10 9 8 6 5 4 4 4 4 4 5 5 6 6 7 8 9 9 10 11 11 11 12 13 14 15 16 17 17 18 18 18 18 18 17 15 13 11 10 9 8 8 8 8 7 6 5 4 5 6 7 10 12 12 11 10 9 9 10 12 13 14 15 15 15 16 16 17 18 18 19 19 20 20 20 21 21 20 20 19 18 17 16 16 16 16 16 16 16 16 16 16 16 16 17 17 17 17
13 13 12 12 11 10 9 7 5 4 3 3 3 3 4 5 5 5 6 7 8 8 9 10 10 11 12 13 14 14 15 16 17 18 18 19 19 19 18 17 15 13 11 11 10 10 10 10 9 8 6 5 4 5 6 8 10 12 13 12 10 10 10 11 13 14 15 15 16 16 17 18 19 20 20 21 22 22 22 22 22 21 21 20 19 18 18 17 17 17 17 16 16 16 16 17 17 17 17 17 17 18 18
14 13 12 12 11 10 8 6 4 3 3 3 3 3 3 4 4 5 6 6 7 8 9 10 10 11 12 12 13 14 15 15 16 17 18 19 19 19 19 17 15 14 13 12 12 12 11 11 10 8 6 5 4 5 7 9 12 13 14 12 11 10 11 12 14 15 16 16 17 17 18 19 20 21 23 24 24 25 25 24 23 22 22 21 20 20 19 18 18 17 17 17 17 17 17 17 17 17 18 18 18 18 18
14 13 12 11 10 8 7 5 4 3 3 2 2 2 3 3 4 5 5 6 7 7 8 9 10 10 11 11 12 13 14 15 16 17 18 19 19 19 19 18 16 14 14 14 13 13 12 11 9 7 4 4 4 6 8 11 13 14 14 13 12 12 12 14 15 16 17 17 18 18 19 20 21 22 24 25 25 25 26 25 24 23 22 22 21 21 20 20 19 19 19 18 18 18 18 18 18 18 18 18 19 19 19
14 13 12 11 9 8 6 5 4 3 2 2 1 2 3 3 4 5 5 6 7 7 8 8 9 10 11 11 11 12 14 15 16 18 18 19 19 18 18 18 16 15 15 15 14 13 12 10 7 5 3 3 5 8 11 14 15 15 14 13 13 13 14 15 16 17 17 17 18 19 20 21 22 23 24 25 25 25 26 26 25 24 23 23 22 22 21 21 21 20 20 19 19 18 18 18 18 19 19 19 19 19 19
13 12 11 10 8 7 6 5 4 3 2 1 2 3 4 4 5 5 6 6 7 7 7 8 9 10 11 11 12 13 14 16 17 18 19 19 18 17 16 17 17 16 16 15 14 12 10 7 5 3 3 5 9 13 15 16 16 15 14 14 14 14 14 15 16 17 17 18 18 19 20 22 23 24 25 26 25 25 25 25 25 25 24 24 23 23 22 22 22 21 21 20 20 19 19 19 19 20 20 20 20 20 20
13 12 11 10 8 7 6 4 3 2 1 2 3 4 5 5 5 6 6 7 7 7 7 8 9 10 11 13 14 15 15 16 17 18 18 16 15 15 15 17 17 17 18 16 12 10 7 5 4 4 5 10 14 16 16 16 15 14 14 13 14 14 15 16 16 17 18 18 19 20 21 23 24 25 26 26 25 25 25 25 25 25 25 25 25 24 24 23 23 22 22 22 21 20 20 20 20 20 21 21 21 20 20
13 12 11 9 8 6 5 4 3 2 2 3 4 5 5 5 5 6 6 7 7 7 8 8 9 10 12 13 14 15 16 17 18 18 16 14 12 11 11 13 13 15 17 16 11 6 5 4 4 5 9 14 16 16 14 13 12 12 12 12 13 14 15 16 16 17 18 19 20 21 22 24 25 26 26 25 24 24 24 24 24 25 25 26 26 25 25 25 25 24 23 23 22 21 21 21 21 21 21 21 21 20 20
12 11 10 8 7 6 4 3 3 3 4 4 5 5 5 5 5 6 6 7 7 8 8 9 9 10 11 12 14 14 15 16 18 16 10 10 10 7 5 6 7 9 13 14 9 4 3 3 3 7 13 17 17 14 10 9 8 9 10 11 12 13 14 15 16 17 18 20 21 22 24 25 26 25 25 24 23 23 24 24 24 25 25 25 26 26 26 26 26 25 24 24 23 23 22 22 21 21 21 21 20 20 20
11 10 9 7 6 5 4 3 3 4 5 5 5 5 4 5 5 6 7 7 7 8 8 8 9 9 10 11 12 14 15 16 17 15 11 9 9 9 6 4 4 4 6 8 6 3 3 4 7 13 19 20 16 10 7 6 7 8 9 11 12 13 14 15 16 18 19 20 22 24 25 26 26 25 24 23 23 23 23 24 24 25 25 25 26 26 26 26 26 26 25 25 24 24 23 23 22 21 21 20 20 20 20
10 9 8 7 6 5 4 4 5 5 5 5 4 5 5 5 6 7 7 7 7 8 8 8 8 8 9 10 12 13 14 15 15 15 15 12 10 8 6 3 3 4 3 3 3 1 2 4 10 17 19 17 12 7 6 7 8 9 10 11 12 13 14 15 17 18 20 21 23 24 26 26 26 24 23 23 23 24 24 24 25 25 25 26 26 26 26 26 26 26 25 25 24 24 23 22 22 21 20 20 20 20 21
10 8 7 6 5 5 5 5 5 5 5 5 5 5 5 6 6 7 7 7 7 8 8 8 7 8 10 11 12 12 13 14 14 14 14 15 12 7 3 2 1 1 0 1 2 2 1 4 11 16 16 12 8 7 8 9 10 11 11 12 12 13 15 16 18 19 20 22 23 25 25 25 25 24 23 24 24 24 25 25 25 25 26 26 26 26 26 26 26 26 25 25 24 23 23 22 21 20 20 20 21 21 21
9 8 7 6 5 5 5 5 5 5 5 5 5 6 6 6 6 6 7 7 7 7 8 8 8 8 10 10 11 11 12 12 13 13 13 14 14 9 3 2 2 1 1 1 0 2 3 7 13 15 12 8 7 9 10 11 11 11 11 12 13 15 16 17 19 20 20 21 22 23 23 23 23 23 24 24 25 25 26 26 26 26 26 26 26 26 26 26 26 26 25 24 23 23 22 22 21 21 20 21 21 21 22
9 8 7 6 5 5 5 5 5 5 5 5 5 6 6 6 6 6 6 6 7 7 8 8 8 9 9 10 10 10 10 11 12 12 12 13 13 12 8 4 3 3 3 2 2 2 3 10 10 7 7 7 8 10 10 11 10 11 11 13 14 15 17 18 19 20 21 21 22 22 21 21 21 22 23 24 25 26 27 27 27 27 26 26 26 26 26 25 25 24 23 22 22 22 22 22 22 21 21 21 22 22 22
8 8 7 6 6 5 5 5 5 5 5 5 5 6 6 5 5 6 6 7 7 8 8 8 8 9 9 9 9 9 10 11 12 11 11 11 11 10 9 7 4 1 2 3 3 4 7 11 8 4 7 11 10 8 9 10 10 11 12 14 15 16 16 18 19 21 22 22 21 19 19 19 20 21 23 24 25 26 27 27 27 26 26 26 25 25 24 23 22 22 21 20 20 21 22 23 22 22 22 22 22 22 23
8 7 7 6 5 5 5 5 4 5 5 5 5 5 5 5 6 6 6 7 7 8 8 8 8 9 9 9 9 9 10 11 11 11 10 9 9 9 8 6 4 1 2 3 3 5 7 6 4 4 7 11 11 9 8 9 10 12 13 14 15 15 16 18 19 20 20 19 19 18 18 19 20 22 23 24 24 25 25 26 26 26 25 25 24 24 22 21 21 21 21 21 22 22 23 22 22 22 22 23 23 23 23
7 7 6 6 5 5 4 4 4 4 5 5 5 5 5 5 6 6 6 6 7 7 7 7 8 8 9 9 9 10 10 10 10 10 10 8 9 9 8 6 4 2 2 4 6 6 5 3 3 4 6 8 11 12 11 9 9 11 13 14 15 15 17 18 19 19 18 17 17 18 18 19 20 21 21 22 22 23 24 25 25 25 24 24 23 22 21 21 21 22 22 22 22 22 22 22 23 23 23 23 23 24 24
7 7 6 6 5 4 4 4 4 4 5 4 4 4 5 5 6 6 6 6 6 7 7 7 8 8 8 8 9 9 9 9 9 10 10 7 6 8 8 7 5 4 3 4 5 6 6 5 4 4 4 5 8 10 13 13 12 12 12 13 14 16 17 17 17 17 16 16 17 19 19 19 19 19 20 21 22 23 23 24 24 23 22 22 21 21 21 21 21 22 22 22 22 22 23 23 24 24 24 24 24 24 24
8 7 6 6 5 4 4 4 4 4 4 4 4 4 5 5 6 6 6 6 6 6 7 7 8 8 8 8 9 9 9 8 8 8 9 6 5 7 8 7 5 5 4 4 5 6 8 9 9 7 5 4 6 8 10 12 14 15 15 14 14 16 17 17 16 15 15 17 18 19 19 19 19 19 20 21 23 23 23 22 21 21 20 20 20 21 21 20 21 21 22 23 23 24 24 24 25 25 25 24 24 24 24
Wind_Direction
109 96 82 78 41 356 348 338 329 335 352 13 34 47 48 35 19 13 13 7 358 354 358 357 354 349 347 346 347 350 351 349 346 344 342 341 340 339 336 333 331 329 325 320 315 311 310 311 316 321 325 327 328 329 331 332 334 336 339 341 341 339 335 329 319 309 299 294 290 287 286 286 285 285 286 286 286 286 285 280 274 268 264 265 265 267 271 274 276 275 271 272 271 268 268 269 270 272 273 272 271 272 273
125 118 111 87 360 347 351 348 338 339 351 8 21 25 17 6 4 9 11 9 360 352 351 348 345 344 347 350 352 351 350 346 344 341 339 340 340 339 337 334 331 328 325 321 318 317 317 318 321 324 326 326 327 329 332 334 336 338 341 342 343 342 339 333 324 314 306 302 297 292 288 286 284 283 284 284 284 283 283 283 282 281 278 272 266 263 263 266 270 273 274 273 272 272 271 274 277 277 275 270 268 269 270
138 132 119 343 338 343 352 357 1 1 5 6 9 7 1 358 359 3 3 3 356 349 348 346 345 346 350 354 353 348 344 340 339 339 338 340 341 340 337 334 330 326 322 321 322 324 326 327 329 330 331 330 332 334 337 339 341 343 345 345 344 342 340 335 328 321 315 308 301 295 291 286 283 281 281 280 281 280 280 281 283 287 289 289 284 274 265 262 264 267 269 269 270 273 275 277 279 280 279 273 269 267 268
214 305 322 329 336 346 1 15 25 25 16 8 7 4 355 353 354 355 356 356 351 345 346 349 352 353 353 352 349 345 342 341 342 343 344 345 345 343 339 335 331 327 326 327 330 333 334 336 338 339 339 339 340 342 344 345 346 347 348 347 345 342 339 335 332 327 320 311 305 300 294 288 283 281 279 278 277 277 277 278 280 284 288 292 292 285 274 267 264 263 263 263 266 272 276 277 276 275 274 273 271 269 270
303 320 328 334 345 1 21 34 34 26 16 6 3 357 349 346 349 353 353 352 348 346 350 356 358 356 352 350 349 349 351 351 353 355 356 353 352 350 345 339 337 337 338 341 343 343 339 341 343 344 344 344 346 347 347 346 346 346 347 345 343 341 337 335 335 334 329 318 312 309 304 298 290 284 282 279 277 277 277 277 277 279 284 288 289 285 279 272 266 263 262 263 266 270 273 273 271 269 269 270 272 272 271
296 336 339 348 1 17 35 48 44 22 10 360 353 349 346 350 356 357 352 350 350 352 355 359 359 356 354 353 354 356 359 359 0 2 2 358 357 356 351 347 346 347 349 349 350 348 343 341 342 343 343 343 342 342 340 339 339 340 340 340 339 337 335 335 339 343 339 324 317 316 314 311 304 297 294 289 285 283 281 280 278 277 278 281 282 281 278 274 270 268 267 268 270 270 268 267 267 267 269 271 271 271 270
228 7 356 1 10 21 33 47 47 28 9 1 1 1 358 359 359 356 350 352 355 356 356 359 358 357 357 357 359 359 360 359 359 360 359 357 356 355 353 351 349 348 348 347 346 344 341 338 338 340 340 339 337 333 331 331 331 331 331 330 331 331 330 332 341 347 338 323 317 316 311 309 306 303 299 295 292 288 282 280 280 279 276 275 277 278 278 276 275 273 271 270 270 268 266 268 269 269 270 271 273 273 273
173 66 27 16 14 19 27 38 39 27 18 12 9 6 4 360 356 353 351 354 355 356 357 358 358 357 358 358 359 358 358 357 356 355 353 351 351 350 348 344 341 340 339 338 339 339 337 335 336 337 337 335 331 328 326 326 325 325 324 323 323 324 324 329 340 344 328 314 311 310 304 300 298 295 290 287 287 286 284 283 283 283 280 275 273 274 276 277 277 277 274 271 266 263 263 264 266 268 271 272 274 275 275
98 62 36 20 13 16 23 30 32 28 25 22 20 15 11 4 359 356 356 357 359 360 359 359 358 356 357 356 355 355 354 353 351 348 345 342 340 336 331 331 330 329 330 333 335 337 337 337 338 337 336 334 330 327 326 325 323 322 320 319 319 319 321 329 336 335 319 312 309 304 298 295 292 291 291 288 285 283 283 284 284 284 285 282 278 276 276 278 279 279 278 277 275 272 269 267 266 267 270 273 275 275 274
98 73 49 27 12 11 17 26 29 25 24 20 17 14 11 6 3 2 2 3 6 5 2 359 356 355 353 352 350 348 346 343 341 337 332 329 327 326 328 328 328 329 332 335 336 338 338 339 339 338 336 333 330 327 325 324 322 320 319 318 318 319 320 328 333 330 316 310 306 303 300 297 294 294 296 295 291 286 282 281 280 282 284 283 281 279 277 274 272 273 277 279 280 281 281 279 276 274 274 275 275 273 271
115 96 72 36 15 8 10 17 20 18 18 13 15 16 10 6 5 7 8 7 5 3 0 357 353 351 350 347 345 342 339 338 336 334 333 333 334 336 339 338 338 337 338 338 337 337 338 338 337 334 331 327 325 324 323 322 321 319 318 318 318 319 321 328 333 329 316 311 308 307 307 305 304 304 303 300 294 288 284 282 281 282 279 275 271 270 270 265 263 265 270 271 273 276 279 279 278 275 272 269 266 265 265
148 109 3 352 349 352 357 359 3 5 6 6 11 14 12 10 9 7 3 3 1 357 355 352 349 348 348 349 348 347 346 348 347 347 346 345 345 344 345 344 343 342 340 338 336 335 336 335 333 328 324 320 319 319 319 320 319 318 317 317 318 318 320 325 330 329 317 312 309 308 307 306 305 305 305 302 297 292 290 288 285 281 277 274 275 277 279 277 273 271 272 268 267 269 270 270 269 268 265 262 261 262 266
277 296 312 323 329 333 338 343 347 351 354 358 360 2 5 5 4 3 359 356 353 350 350 349 349 351 356 358 358 357 358 357 356 355 353 350 348 346 344 343 342 341 339 337 336 336 337 336 334 329 326 323 321 321 321 320 320 319 318 317 318 318 319 321 326 327 318 314 309 306 305 303 302 301 300 298 297 297 298 296 290 284 282 286 293 300 305 308 306 300 293 284 277 272 270 266 265 265 265 265 267 272 278
285 300 312 323 330 334 337 340 342 347 352 357 356 352 352 356 358 356 352 350 347 347 351 355 358 2 4 3 1 359 358 356 355 353 352 350 347 345 343 342 341 340 340 338 339 341 342 342 340 338 335 332 329 327 325 324 323 321 320 319 320 319 318 317 322 326 323 314 306 303 303 301 299 296 293 290 291 293 295 294 294 293 292 297 303 308 311 316 319 321 319 314 307 297 287 279 272 267 266 266 269 277 285
288 303 316 325 330 335 338 341 345 350 357 1 356 350 351 357 357 353 348 349 350 354 359 4 7 7 4 359 355 352 349 347 346 345 344 345 344 344 343 342 341 340 340 340 342 343 344 342 341 339 337 334 332 330 329 328 327 325 324 323 322 321 319 318 323 328 329 320 309 303 301 299 297 296 296 294 292 288 286 287 292 295 294 297 302 306 309 309 307 305 305 310 316 318 314 308 296 282 273 269 271 278 286
289 309 319 323 328 334 340 349 360 7 9 1 353 349 351 354 357 355 354 356 359 2 7 9 8 3 356 349 345 342 339 336 335 334 334 336 338 340 341 341 340 339 339 340 341 341 341 339 337 335 333 332 331 331 331 331 331 330 328 327 326 325 324 325 330 336 338 332 321 311 305 303 305 308 310 309 305 298 290 288 287 287 290 290 294 302 309 308 305 301 299 301 302 304 306 308 303 294 284 280 281 286 290
287 306 314 318 325 339 355 17 30 31 22 2 350 349 351 355 360 1 2 2 5 8 9 6 359 351 344 341 338 335 333 329 326 324 325 328 333 337 339 338 337 338 339 340 340 340 338 336 334 333 332 331 332 333 334 335 336 335 334 333 334 336 338 341 344 346 346 341 334 324 317 316 320 324 326 325 322 320 317 308 295 288 293 292 289 290 301 308 312 313 314 311 306 302 301 302 301 294 287 283 284 286 288
265 285 291 296 314 59 53 51 53 46 32 9 355 352 357 2 6 7 6 6 8 9 4 354 345 339 335 334 334 333 331 326 322 320 322 326 332 335 336 336 336 338 339 340 340 339 337 335 334 333 333 333 335 337 339 339 339 339 340 342 347 354 358 359 357 354 350 346 340 334 331 331 334 337 341 342 342 343 345 342 332 320 313 310 298 286 292 303 315 324 331 329 324 319 316 317 313 305 294 284 279 278 280
225 230 219 180 143 111 76 66 59 45 27 10 353 353 1 8 10 9 7 6 4 359 350 339 332 329 327 328 330 331 329 325 323 322 326 331 335 336 335 336 338 340 341 342 341 340 337 335 334 334 335 336 338 340 340 340 340 340 342 348 359 8 11 9 5 0 357 353 350 347 347 347 345 346 352 355 355 356 357 356 353 348 339 331 315 299 297 300 304 311 322 325 328 330 327 324 320 315 305 289 277 274 275
194 189 178 164 137 103 80 76 54 9 360 360 342 345 359 7 9 7 3 356 349 341 332 327 324 323 323 325 328 330 330 328 328 328 331 335 338 338 338 339 340 342 341 341 339 337 334 334 333 333 334 335 336 337 338 337 336 336 338 346 359 11 14 13 11 8 7 6 4 2 3 2 1 360 0 359 358 357 357 359 0 358 353 347 336 326 320 319 314 312 314 310 311 316 321 321 318 319 320 306 291 282 278
185 180 173 151 117 94 86 75 4 341 348 354 342 327 347 355 356 353 347 337 327 321 320 320 321 322 325 327 331 334 337 338 338 336 337 340 340 340 340 340 340 339 338 336 334 332 331 330 330 329 329 329 330 331 331 330 330 330 332 337 345 359 9 14 14 14 14 14 12 11 12 13 12 11 7 4 1 358 355 2 6 6 2 359 1 3 0 358 354 346 336 324 315 313 318 323 328 338 347 338 321 302 285
190 185 172 137 115 102 79 343 325 326 333 342 338 312 313 322 328 328 323 317 313 311 313 315 319 323 329 332 336 340 343 345 344 342 340 341 340 340 339 337 336 335 333 331 330 329 329 328 327 326 325 323 323 324 324 323 323 323 323 323 326 336 353 7 13 16 16 14 12 12 13 13 13 12 10 8 6 4 2 6 10 12 11 12 18 20 15 9 13 17 13 5 353 341 332 328 332 345 1 1 351 332 303
204 197 166 151 173 233 288 313 309 302 309 327 342 346 313 302 301 303 303 303 303 305 309 312 319 329 333 334 337 343 346 346 344 343 343 341 340 340 338 336 333 332 330 329 329 329 330 329 328 327 325 322 320 321 320 319 318 317 315 313 312 318 334 356 10 15 15 14 11 9 8 9 9 8 6 5 8 10 8 9 12 10 3 15 27 30 23 17 20 26 24 22 20 17 9 357 349 350 1 7 6 357 341
223 209 169 195 219 246 265 286 266 239 256 296 313 313 295 289 287 288 293 295 300 306 309 312 321 334 340 343 345 348 350 349 346 345 345 344 342 340 339 335 333 331 331 331 331 332 333 333 332 331 328 325 322 320 319 318 318 315 310 305 304 305 314 343 9 15 14 14 9 3 3 3 3 3 2 5 9 11 8 8 12 9 358 13 30 36 35 34 35 35 31 29 26 24 23 20 17 14 11 12 11 6 360
237 232 192 207 212 219 234 252 231 216 228 253 260 262 263 268 273 281 292 298 306 316 321 328 342 353 354 355 353 353 352 351 349 347 346 345 344 341 338 335 333 332 333 333 335 336 338 338 336 334 331 325 322 320 317 322 321 314 305 298 294 291 289 316 19 28 24 20 13 4 1 359 360 1 3 7 11 12 10 10 11 9 2 3 13 24 30 32 32 33 34 33 30 26 23 22 22 18 14 12 10 8 6
239 229 203 203 201 200 221 231 217 213 224 233 236 237 241 245 256 274 288 303 324 342 354 6 10 8 3 359 357 354 352 351 350 348 347 345 344 341 339 336 335 335 336 338 339 341 342 342 339 335 330 322 318 317 319 325 322 311 299 290 285 279 269 255 55 47 36 30 25 19 9 2 3 6 5 8 10 13 15 18 11 1 360 4 6 7 9 13 16 17 17 19 20 21 18 13 7 2 358 356 358 1 3
220 198 191 203 204 199 200 201 194 192 197 210 224 234 234 230 242 260 273 300 341 9 17 14 10 4 359 356 355 353 351 351 350 348 347 345 343 342 341 340 339 340 341 342 344 346 347 346 342 334 326 319 314 316 321 325 318 303 291 281 275 266 247 218 156 79 51 39 34 31 26 21 14 8 7 10 13 16 18 20 18 13 7 2 357 353 351 356 0 2 2 1 358 356 356 352 349 347 342 340 343 346 348
184 165 179 187 182 176 179 179 173 166 164 183 221 249 252 227 222 238 253 318 3 11 10 5 360 357 355 353 353 353 352 351 350 349 348 347 346 346 347 347 346 346 347 348 350 351 352 351 345 336 326 320 314 318 325 325 314 298 283 271 256 242 222 200 168 116 69 48 39 35 33 29 23 17 17 15 14 15 14 15 14 8 359 352 351 351 347 342 343 349 355 354 351 346 342 340 338 335 330 329 329 330 332
164 159 167 164 160 160 172 177 170 162 164 184 203 212 221 195 190 231 285 346 355 355 352 352 350 351 352 353 353 353 356 356 355 353 351 351 353 354 354 354 353 352 353 354 356 357 358 358 354 339 329 324 325 330 338 336 327 304 278 259 241 225 205 191 173 137 85 56 43 37 34 32 30 27 23 17 12 11 9 10 6 2 359 359 357 351 345 342 343 345 345 345 343 340 338 336 332 326 322 320 319 320 320
155 153 155 147 141 145 164 173 170 163 164 173 174 171 172 175 175 18 6 357 351 347 345 347 347 349 351 353 354 358 0 0 360 359 359 0 2 2 2 1 360 359 358 359 360 3 4 5 356 343 333 334 341 348 352 348 333 313 295 283 267 259 253 240 222 173 85 52 41 35 32 31 30 27 23 21 17 12 7 5 1 358 359 358 356 351 345 340 338 336 335 332 330 329 330 330 327 323 321 319 318 317 315
155 153 150 139 134 144 162 167 167 163 157 161 165 164 155 148 82 17 5 357 352 349 349 350 351 352 354 355 359 2 5 5 5 4 5 6 7 8 8 8 6 4 4 3 4 5 7 5 2 354 351 351 353 355 354 347 333 318 306 300 298 302 307 310 310 308 321 9 24 26 26 27 26 25 23 20 16 11 3 354 355 359 357 353 348 342 337 333 330 328 325 324 323 323 323 324 323 322 320 318 316 315 315
160 158 154 150 153 163 166 163 158 153 150 152 154 151 135 87 30 9 358 355 353 353 354 355 357 359 360 2 5 8 9 9 8 8 8 10 12 13 14 13 12 10 9 9 10 11 11 14 18 23 17 6 1 360 356 350 339 328 319 316 315 316 316 318 318 318 320 339 2 15 19 21 22 22 20 18 14 8 357 355 356 355 351 345 339 334 332 330 328 326 323 321 321 320 320 319 318 317 317 319 319 318 316
162 161 161 162 165 168 167 159 149 143 141 139 132 113 84 44 18 8 1 360 360 1 3 6 8 9 9 11 12 12 12 11 10 10 10 11 14 16 17 16 16 15 14 14 14 15 19 28 35 31 24 17 14 11 10 4 354 345 339 339 339 336 333 330 327 327 330 339 353 5 12 15 16 16 17 15 12 7 1 357 352 348 344 341 338 335 333 331 329 327 324 322 321 320 319 317 317 317 318 319 318 316 315
165 164 166 165 167 167 163 153 146 141 137 126 101 71 51 35 23 16 14 14 15 17 20 20 19 18 17 16 15 14 14 13 11 11 11 12 14 15 16 17 17 16 14 13 13 14 19 29 33 30 28 24 24 25 23 18 12 5 1 358 355 351 349 345 342 341 341 345 351 358 4 8 10 10 9 8 5 1 356 351 349 347 343 343 341 338 334 331 329 327 325 323 322 321 320 320 320 321 319 318 316 314 313
167 164 164 164 163 162 157 150 144 139 129 107 79 60 46 40 35 32 30 31 30 31 30 26 23 21 20 17 16 15 16 15 13 11 11 12 13 13 14 15 16 15 13 9 8 9 14 21 25 29 30 29 29 30 30 26 20 14 10 6 1 358 356 353 351 349 348 348 350 354 358 1 4 5 4 4 1 356 353 351 351 350 347 343 339 336 334 331 329 328 326 324 323 322 321 320 319 319 318 316 315 314 312
167 162 160 160 159 157 152 146 140 129 111 91 75 63 55 51 48 46 44 40 38 35 32 26 23 21 19 17 17 17 16 14 12 12 12 13 11 11 11 11 11 11 10 6 3 2 7 13 16 23 29 30 32 33 32 28 23 17 13 7 3 0 358 356 355 353 352 351 351 352 354 357 359 1 2 1 357 354 354 354 351 348 346 343 340 338 336 333 331 329 327 326 324 323 321 320 319 317 316 315 314 313 312
165 161 158 158 158 155 150 144 133 118 99 88 80 72 65 62 57 51 46 39 35 33 28 25 23 22 21 20 20 19 17 14 12 12 11 11 10 9 9 8 7 6 6 3 358 354 358 360 1 7 21 29 33 34 32 27 22 16 11 6 2 0 359 358 356 355 353 352 351 352 353 354 356 359 359 358 356 353 351 350 348 347 346 344 342 340 338 335 333 330 328 327 325 323 322 320 319 318 317 315 314 313 312
164 162 161 160 159 155 147 138 125 109 99 93 86 78 68 61 55 47 38 32 30 27 23 22 22 22 23 24 23 21 18 15 13 12 10 9 7 7 7 5 2 1 1 1 356 350 352 352 351 353 357 14 25 28 27 24 20 14 10 4 1 360 359 359 357 355 353 352 352 352 352 352 353 354 355 354 353 350 348 346 344 343 344 344 343 341 339 337 334 332 330 328 326 324 322 321 320 318 317 315 314 313 312
168 167 164 160 156 150 141 129 117 108 103 96 85 74 60 52 45 37 29 26 24 21 19 18 18 20 23 23 23 21 18 15 13 12 9 7 6 5 4 2 359 357 356 356 356 354 350 349 349 344 336 342 3 16 19 19 17 13 8 3 359 357 358 358 357 355 353 352 351 351 350 350 350 350 349 349 348 346 343 342 341 340 341 341 341 340 339 338 336 333 331 328 326 324 323 322 320 319 317 316 315 314 312
172 168 162 156 150 141 131 120 112 107 102 89 75 62 49 40 35 30 24 21 19 18 16 14 14 16 19 18 17 16 16 13 11 10 7 6 4 2 1 359 358 355 353 352 354 355 351 348 346 342 332 324 333 352 5 10 12 10 6 1 357 355 355 356 355 354 353 352 350 349 349 348 347 346 345 345 343 342 340 338 338 338 338 339 338 338 337 336 335 333 331 328 326 325 323 322 321 319 317 316 315 314 312
169 164 159 151 142 132 122 115 109 103 94 78 65 53 40 32 28 26 21 17 16 17 16 14 14 15 16 14 12 11 11 10 8 7 5 3 2 360 359 358 357 355 353 352 351 352 351 348 345 343 337 327 320 327 345 357 3 4 3 359 355 353 352 353 353 353 352 351 349 348 347 346 345 344 343 342 341 339 338 336 336 336 336 336 336 335 334 334 333 331 330 327 326 325 322 321 320 318 318 317 315 313 312
163 160 156 145 135 125 117 112 105 94 82 70 59 48 38 32 29 26 22 16 15 17 18 17 15 15 14 12 10 9 7 6 5 4 2 360 359 358 357 357 357 357 357 354 350 348 347 345 342 341 339 335 320 315 326 342 352 357 358 357 353 350 349 350 350 350 349 348 347 346 345 344 343 343 341 340 339 337 336 335 334 334 334 334 333 332 331 331 331 329 328 326 325 324 321 319 318 318 317 316 314 313 312
158 155 149 138 128 120 113 106 97 86 73 64 55 47 40 37 33 28 25 18 17 19 21 20 17 14 13 13 11 8 6 4 3 1 359 357 356 356 357 358 359 360 359 356 350 345 341 340 338 337 338 337 323 309 312 329 344 350 353 352 350 347 346 345 346 346 346 345 344 343 342 341 341 340 340 338 336 335 334 333 333 332 332 332 331 330 329 328 328 327 326 325 324 323 321 319 318 317 316 314 314 313 312
152 147 139 129 121 115 109 102 93 82 69 62 56 50 47 44 38 32 28 21 20 23 26 23 19 16 14 15 13 10 8 4 1 359 357 355 354 355 357 360 1 1 0 356 348 340 336 334 334 334 335 335 322 309 310 325 338 346 348 348 346 344 343 343 342 342 342 342 341 341 340 339 339 339 338 336 335 333 332 332 332 331 331 331 330 329 328 326 325 324 324 323 322 321 320 319 318 316 315 314 313 313 312
145 138 130 122 116 113 110 105 100 91 77 67 62 59 53 50 42 35 29 24 22 25 31 27 21 17 16 17 15 12 9 5 0 357 355 353 353 355 359 2 3 1 358 353 346 337 332 331 332 334 336 334 323 316 317 327 336 341 342 343 343 342 341 340 339 338 338 338 338 338 337 337 337 337 336 335 334 333 332 331 331 330 330 329 329 327 326 324 323 321 321 321 321 320 319 319 317 315 314 313 313 313 312
140 132 125 120 118 118 117 117 113 101 84 76 71 69 63 52 40 31 26 24 23 25 30 30 25 20 18 16 14 12 8 3 359 356 354 352 353 356 1 4 4 1 357 351 343 336 332 332 335 340 345 337 327 323 325 331 334 337 340 341 342 341 338 336 334 334 334 335 335 335 334 335 335 335 335 334 333 332 331 330 330 329 329 328 327 326 325 323 322 320 319 319 319 319 319 318 317 316 314 314 313 313 311
136 130 125 124 125 126 127 125 120 109 94 87 80 71 59 47 36 27 23 19 19 21 25 25 25 23 20 14 11 9 7 3 360 357 354 353 355 358 1 3 5 3 358 351 343 336 335 340 349 2 7 349 336 333 332 333 334 337 340 340 338 335 332 329 329 329 330 331 331 331 331 332 332 333 333 332 332 331 330 329 329 328 328 327 326 324 323 322 320 319 319 319 319 319 318 318 316 315 315 314 313 312 310
135 131 130 131 133 133 132 129 123 116 102 85 64 57 50 41 31 25 19 15 14 15 17 17 19 20 18 15 12 10 8 5 3 0 358 357 357 357 357 0 2 3 1 355 346 339 341 356 21 44 29 355 343 338 335 334 334 335 335 333 329 326 323 323 324 325 326 326 326 327 328 329 330 330 331 331 330 330 329 329 328 328 327 326 325 323 322 321 320 319 319 319 319 319 317 317 316 315 314 313 312 311 310
136 135 135 136 137 137 134 130 127 119 94 61 54 52 45 36 29 22 16 11 9 9 10 12 15 18 20 22 18 14 11 9 5 3 5 5 360 353 353 355 358 359 1 359 351 344 354 24 56 53 14 352 343 337 332 329 328 327 324 322 320 319 318 320 320 321 321 322 322 323 325 326 328 328 329 329 329 329 329 328 328 327 326 325 324 323 322 320 320 319 319 319 319 318 317 316 315 314 313 312 311 310 309
137 137 138 139 139 137 133 129 124 103 70 56 52 50 43 34 27 19 13 10 6 5 9 15 18 21 27 32 28 21 16 12 8 8 13 14 7 355 349 348 349 352 356 0 359 358 18 57 61 24 357 345 338 332 326 322 320 319 317 316 315 315 316 317 317 317 317 318 319 320 322 324 326 327 327 328 328 328 328 327 327 326 325 324 324 322 321 320 319 319 319 319 318 317 315 314 314 313 312 311 310 309 308
136 137 138 140 139 136 130 124 104 75 59 56 53 49 42 30 17 9 6 6 4 4 10 21 25 26 30 38 35 27 22 17 16 17 17 14 9 0 338 331 336 345 352 355 3 31 53 70 27 353 342 336 333 330 327 325 323 321 317 314 313 312 313 314 314 314 315 316 317 319 321 323 324 326 326 327 327 327 327 326 326 325 324 323 322 321 320 319 318 318 318 317 317 315 314 313 313 312 311 311 310 309 308
136 136 138 139 137 131 124 111 86 67 56 54 52 47 32 15 5 1 359 2 4 5 9 21 30 34 33 37 36 31 26 24 24 27 32 15 2 0 1 336 331 348 356 348 356 34 41 358 338 332 330 330 332 336 339 335 327 321 315 311 310 310 311 312 313 313 314 315 317 318 320 322 323 325 326 326 326 326 326 326 325 324 323 322 320 319 318 317 317 317 316 316 315 314 314 314 314 313 311 310 309 308 307
136 136 137 135 130 122 113 98 80 68 57 47 43 37 22 11 7 5 2 4 6 9 14 18 25 32 34 34 35 34 31 30 30 32 32 24 9 0 9 2 356 358 350 331 317 322 31 5 340 330 326 327 329 334 334 329 322 316 311 309 308 309 311 311 311 312 313 315 317 318 320 321 323 324 325 326 326 326 326 326 325 323 322 320 319 317 316 316 316 316 316 315 315 315 315 316 316 315 312 310 309 308 307
137 136 133 128 121 113 103 89 79 67 55 39 32 29 23 17 15 14 10 12 12 14 18 20 18 24 35 35 35 36 36 34 33 34 34 30 25 15 357 357 2 360 207 276 304 316 3 355 333 323 318 320 323 323 322 320 316 311 308 308 308 309 310 311 311 312 313 315 316 318 320 321 322 323 324 325 325 325 325 325 324 323 321 319 318 317 316 315 316 316 316 316 316 317 317 319 319 317 313 310 309 308 307
136 133 127 119 112 106 96 85 75 64 50 35 27 25 26 24 23 20 18 18 17 17 19 19 19 23 33 40 38 34 36 36 34 34 36 33 36 39 20 330 322 317 221 197 302 337 337 338 327 320 315 321 325 322 317 315 311 309 307 307 309 310 310 311 311 312 314 315 317 318 319 320 321 322 323 323 323 324 324 324 323 322 321 319 318 316 315 315 316 317 317 317 318 318 320 321 320 317 313 310 308 307 306
135 129 122 113 105 99 91 81 72 61 48 35 27 25 28 29 28 26 23 23 22 21 20 21 23 25 29 39 38 32 29 33 33 31 34 36 38 42 46 32 354 339 330 340 344 344 342 333 327 317 317 329 328 320 312 310 308 306 307 308 309 310 311 311 311 312 314 315 316 317 317 318 319 320 320 320 320 321 322 322 322 321 320 319 317 316 316 316 317 317 317 318 318 318 319 320 319 316 312 310 308 307 306
132 125 118 109 101 94 88 79 68 57 48 38 33 34 35 36 36 35 32 29 28 26 22 22 25 27 27 29 29 27 26 27 28 29 29 32 34 38 45 53 53 14 334 335 335 329 326 331 327 308 315 320 317 308 305 307 306 305 306 308 309 310 309 309 310 311 312 314 315 315 315 315 316 316 316 317 317 318 319 320 320 320 319 318 317 316 316 316 316 316 316 315 315 315 317 318 317 315 312 310 308 307 305
128 122 115 108 100 92 86 75 64 55 48 41 40 42 43 44 43 39 34 32 30 28 23 21 25 28 27 22 19 23 29 30 26 22 21 22 24 27 33 40 52 70 237 263 286 307 318 323 322 315 315 317 316 313 312 309 307 306 307 308 309 309 308 308 310 311 312 312 312 313 313 313 313 313 314 314 315 315 316 316 317 318 317 317 317 316 315 315 315 314 314 314 314 315 316 316 316 315 313 310 308 306 305
124 120 115 109 103 95 85 73 62 55 49 44 42 42 42 43 40 36 31 31 30 26 22 21 22 24 23 18 16 22 35 34 26 17 14 14 14 15 18 19 16 360 302 278 283 292 301 314 322 323 321 318 318 319 318 313 308 307 307 309 310 310 310 310 310 310 309 309 310 311 311 310 311 311 311 312 312 312 312 313 314 315 316 316 316 315 314 314 314 314 315 315 315 316 316 316 315 314 312 310 307 305 304
122 119 117 114 107 97 85 73 63 56 49 45 41 37 36 39 37 34 31 31 30 25 20 18 18 17 18 14 13 22 36 36 25 15 15 16 10 6 8 9 7 357 333 310 304 301 298 287 294 310 320 316 317 317 316 315 313 311 308 309 313 314 313 311 309 307 307 307 309 310 309 309 309 309 309 309 309 310 310 310 311 312 313 313 313 313 313 313 313 314 315 316 316 316 315 315 314 313 312 308 306 304 303
122 121 120 117 112 101 88 75 66 59 52 45 39 34 33 36 35 32 28 27 26 22 17 14 14 14 13 9 10 16 24 30 26 18 15 22 12 0 2 3 360 350 333 316 309 304 298 288 283 283 288 299 306 307 308 313 317 317 314 314 316 316 313 311 309 307 307 308 308 308 307 307 307 307 307 307 308 308 308 308 308 308 309 310 311 311 312 312 312 313 314 315 316 315 314 314 313 312 311 308 305 303 302